Showing default

GRUS-1A, 43890

Orbit data source: Space-Track

GRUS-1A, 43890 is a payload satellite in SSO that was launched on Thu, 27 Dec 2018 UTC via a SOYUZ-2-1A launch vehicle from the Vostochny Cosmodrome (VOSTO). Payload-class satellites include a variety of spacecraft equipped with specific instruments for various scientific and technological missions. These include communications satellites like Starlink; space stations such as the ISS; scientific satellites like the Hubble; Earth observation satellites from companies like Planet Labs, Umbra, and HawkEye 360; GPS; miniature CubeSats for education and research; and military/defense satellites.

Loading next visibility...
Identifier
43890, 2018-111Q
Orbit
SSO
Country
Flag of TBDTBD
Related business
Manufacturer
AXELSPACE
Mission
Operational Commercial Imaging
Bus & Motor
GRUS, Unknown motor
Mass
80 kg wet, 80 kg dry
Launch date (UTC)
2018-12-27 (7 years ago)
Launch vehicle
SOYUZ-2-1A
Launch site
Vostochny Cosmodrome (VOSTO)
Object type
Payload
Rocket body
Debris
Shape & HBR
Box, 0.3 m
Radar Cross Section
0.375 m², Medium (>0.1 m² and < 1m²)

Expand to show TLE details & history
Last TLE update: 6 hours ago

TLE from 6 hours ago
0 GRUS-1A
1 43890U 18111Q   25290.94793122  .00002441  00000-0  20997-3 0  9992
2 43890  97.4841 163.2297 0006823 252.1937 107.8542 14.98266683371424
Epoch: 2025-10-17T22:45Z
TLE epoch observation values (Epoch: 2025-10-17T22:45:01.257Z)
Latitude
-0.00001°
Longitude
155.28848°
Altitude
576.767 km
Speed
7.571 km/s
True Right ascension
10h 52m 55s
True Declination
0° 00' 00"
Sunlit
Object was in daylight at epoch
Visualization orbit readout
Latitude
Unknown
Longitude
Unknown
Altitude
Unknown
Speed
Unknown
Apparent Right ascension
Unknown
Apparent Declination
Unknown
Sunlit
N/A
Visualization observer readout
Local Sidereal Time
23:45:25
Azimuth
Unknown
Elevation
Unknown
Doppler factor
Unknown
Orbital elements
Apogee altitude
573.99 km
Perigee altitude
564.51 km
Semi-major axis
6,947.387 km
Eccentricity
0.00068
Inclination
97.4841°
RAAN
163.2297°
Arg. of periapsis
252.1937°
True anomaly
107.9286°
Mean anomaly
107.8542°
Eccentric anomaly
107.8914°
Mean motion
3.7481 °/min
Orbital period
96.05 mins
BSTAR
0.00020997
Loading maneuver chart data...
Computing Atmospheric mass density...

Documentation

Showing up to 5 results
|